CW0230 Weather Reports


Display with metric or nautical units.
time (UTC)temp
F
wind
direction
speed
MPH
gust
MPH
rain 1hr
in
rain 24hr
in
rain mn
in
humidity
%
barometer
mb
20260906193017 69 179 3.0 7.0 0.00 0.00 0.00 75 1016.8
20260906191518 69 159 3.0 5.0 0.00 0.00 0.00 73 1016.7
20260906190017 70 120 2.0 5.0 0.00 0.00 0.00 72 1016.6
20260906185518 70 130 2.0 5.0 0.00 0.00 0.00 72 1016.6
20260906185017 70 135 3.0 5.0 0.00 0.00 0.00 71 1016.5
20260906184017 70 139 2.0 7.0 0.00 0.00 0.00 70 1016.5
20260906183517 71 146 2.0 7.0 0.00 0.00 0.00 70 1016.4
20260906183018 71 139 4.0 8.0 0.00 0.00 0.00 69 1016.3
20260906181517 71 150 5.0 12.0 0.00 0.00 0.00 69 1016.2
20260906181017 71 154 5.0 12.0 0.00 0.00 0.00 69 1016.4
20260906180517 72 150 6.0 12.0 0.00 0.00 0.00 68 1016.3
20260906180017 72 152 6.0 12.0 0.00 0.00 0.00 68 1016.3
20260906175517 72 138 6.0 10.0 0.00 0.00 0.00 67 1016.3
20260906174517 73 157 5.0 12.0 0.00 0.00 0.00 65 1016.4
20260906174017 73 158 6.0 10.0 0.00 0.00 0.00 64 1016.5
20260906172018 74 151 6.0 12.0 0.00 0.00 0.00 62 1016.8
20260906170018 75 155 7.0 10.0 0.00 0.00 0.00 60 1016.9
20260906165018 76 180 5.0 14.0 0.00 0.00 0.00 60 1016.9
20260906162517 77 183 5.0 12.0 0.00 0.00 0.00 58 1016.9
20260906161517 77 163 7.0 12.0 0.00 0.00 0.00 56 1016.9
20260906161018 77 145 7.0 12.0 0.00 0.00 0.00 55 1017.0
20260906160518 78 166 6.0 12.0 0.00 0.00 0.00 55 1017.0
20260906160018 78 147 6.0 13.0 0.00 0.00 0.00 55 1017.1
20260906155518 78 179 6.0 13.0 0.00 0.00 0.00 55 1017.1
20260906155018 78 145 7.0 13.0 0.00 0.00 0.00 54 1017.2
20260906154018 78 165 7.0 13.0 0.00 0.00 0.00 54 1017.4
20260906153517 78 149 7.0 12.0 0.00 0.00 0.00 54 1017.4
20260906152518 78 174 6.0 13.0 0.00 0.00 0.00 53 1017.4
20260906151517 78 171 7.0 12.0 0.00 0.00 0.00 54 1017.6
20260906151017 78 193 5.0 12.0 0.00 0.00 0.00 54 1017.6
20260906145017 78 176 6.0 14.0 0.00 0.00 0.00 51 1017.8
20260906144518 79 159 7.0 14.0 0.00 0.00 0.00 51 1017.9
20260906144017 79 182 6.0 15.0 0.00 0.00 0.00 51 1018.0
20260906143517 79 158 9.0 15.0 0.00 0.00 0.00 51 1018.0
20260906142517 80 155 9.0 15.0 0.00 0.00 0.00 48 1017.9
20260906142018 80 145 6.0 15.0 0.00 0.00 0.00 46 1017.9
20260906141517 80 200 6.0 15.0 0.00 0.00 0.00 44 1017.9
20260906141017 80 175 8.0 18.0 0.00 0.00 0.00 43 1018.0
20260906140518 80 159 10.0 18.0 0.00 0.00 0.00 43 1018.1
20260906135517 82 163 8.0 14.0 0.00 0.00 0.00 42 1018.3
20260906135018 82 188 7.0 16.0 0.00 0.00 0.00 42 1018.3
20260906134517 82 200 9.0 16.0 0.00 0.00 0.00 41 1018.4
20260906134017 81 177 6.0 14.0 0.00 0.00 0.00 42 1018.5
20260906133517 81 163 6.0 14.0 0.00 0.00 0.00 42 1018.6
20260906133017 81 169 6.0 15.0 0.00 0.00 0.00 42 1018.6
20260906132517 81 199 6.0 15.0 0.00 0.00 0.00 42 1018.6
20260906131518 81 173 6.0 15.0 0.00 0.00 0.00 42 1018.9
20260906130517 80 157 7.0 16.0 0.00 0.00 0.00 42 1019.0
20260906125518 80 171 7.0 13.0 0.00 0.00 0.00 44 1019.2
20260906124517 80 210 5.0 12.0 0.00 0.00 0.00 44 1019.1
20260906123517 80 159 6.0 13.0 0.00 0.00 0.00 44 1019.2
20260906122018 80 127 5.0 18.0 0.00 0.00 0.00 49 1019.3
20260906120518 80 144 6.0 12.0 0.00 0.00 0.00 48 1019.5
20260906114517 79 148 5.0 13.0 0.00 0.00 0.00 52 1019.8
20260906114018 78 154 6.0 13.0 0.00 0.00 0.00 51 1019.9
20260906113517 78 150 8.0 12.0 0.00 0.00 0.00 50 1020.0
20260906113018 78 189 6.0 14.0 0.00 0.00 0.00 51 1020.1
20260906112017 78 177 6.0 14.0 0.00 0.00 0.00 49 1020.1
20260906110517 77 189 4.0 10.0 0.00 0.00 0.00 52 1020.2
20260906105017 77 188 7.0 12.0 0.00 0.00 0.00 55 1020.3
20260906104518 77 177 6.0 10.0 0.00 0.00 0.00 57 1020.3
20260906102518 75 192 5.0 12.0 0.00 0.00 0.00 60 1020.5
20260906101517 75 139 5.0 14.0 0.00 0.00 0.00 62 1020.6
20260906101017 74 185 7.0 14.0 0.00 0.00 0.00 62 1020.6
20260906095518 73 159 6.0 13.0 0.00 0.00 0.00 67 1020.7
20260906095017 73 182 6.0 13.0 0.00 0.00 0.00 67 1020.8
20260906094518 73 152 7.0 14.0 0.00 0.00 0.00 68 1020.9
20260906093018 72 152 7.0 14.0 0.00 0.00 0.00 69 1020.9
20260906092518 72 151 9.0 14.0 0.00 0.00 0.00 68 1021.1
20260906091017 71 158 7.0 13.0 0.00 0.00 0.00 70 1021.0
20260906090518 71 154 6.0 13.0 0.00 0.00 0.00 71 1020.9
20260906090017 71 156 5.0 10.0 0.00 0.00 0.00 72 1021.0
20260906085017 70 142 7.0 12.0 0.00 0.00 0.00 74 1021.0
20260906084517 70 165 5.0 12.0 0.00 0.00 0.00 75 1021.1
20260906084018 69 155 5.0 14.0 0.00 0.00 0.00 76 1021.1
20260906083518 69 164 8.0 14.0 0.00 0.00 0.00 76 1021.0
20260906083018 68 139 4.0 9.0 0.00 0.00 0.00 78 1021.0
20260906082518 68 150 4.0 13.0 0.00 0.00 0.00 80 1021.1
20260906082017 67 115 5.0 13.0 0.00 0.00 0.00 80 1021.2
20260906080018 65 148 5.0 13.0 0.00 0.00 0.00 84 1021.1
20260906075518 64 142 6.0 13.0 0.00 0.00 0.00 84 1021.1
20260906074518 63 159 4.0 13.0 0.00 0.00 0.00 86 1021.1
20260906072518 61 119 3.0 8.0 0.00 0.00 0.00 89 1021.0
20260906072017 60 155 3.0 6.0 0.00 0.00 0.00 89 1021.2
20260906071518 60 146 3.0 6.0 0.00 0.00 0.00 89 1021.2
20260906070517 59 150 4.0 7.0 0.00 0.00 0.00 90 1021.3
20260906070018 59 144 3.0 5.0 0.00 0.00 0.00 90 1021.4
20260906065519 58 148 3.0 7.0 0.00 0.00 0.00 90 1021.5
20260906065017 58 157 3.0 7.0 0.00 0.00 0.00 91 1021.5
20260906063517 57 170 3.0 6.0 0.00 0.00 0.00 91 1021.5
20260906062017 57 150 2.0 3.0 0.00 0.00 0.00 91 1021.5
20260906061018 57 151 2.0 3.0 0.00 0.00 0.00 91 1021.6
20260906055517 57 131 1.0 3.0 0.00 0.00 0.00 91 1021.7
20260906053517 57 152 1.0 3.0 0.00 0.00 0.00 91 1022.0
20260906052518 57 177 1.0 3.0 0.00 0.00 0.00 91 1022.1
20260906051518 57 140 1.0 3.0 0.00 0.00 0.00 91 1022.1
20260906051017 57 140 1.0 3.0 0.00 0.00 0.00 91 1022.1
20260906050517 57 140 0.0 2.0 0.00 0.00 0.00 91 1022.1
20260906050018 57 142 1.0 3.0 0.00 0.00 0.00 91 1022.2
20260906045518 57 142 1.0 3.0 0.00 0.00 0.00 91 1022.3
20260906045018 57 148 1.0 2.0 0.00 0.00 0.00 91 1022.3
20260906044518 57 134 1.0 2.0 0.00 0.00 0.00 91 1022.4
20260906044018 57 134 0.0 2.0 0.00 0.00 0.00 91 1022.4
20260906042518 58 154 1.0 3.0 0.00 0.00 0.00 90 1022.5
20260906041517 58 140 1.0 3.0 0.00 0.00 0.00 90 1022.8
20260906041017 58 141 1.0 3.0 0.00 0.00 0.00 90 1022.7
20260906040517 58 143 1.0 3.0 0.00 0.00 0.00 90 1022.7
20260906040018 58 143 1.0 2.0 0.00 0.00 0.00 90 1022.8
20260906035518 58 143 0.0 2.0 0.00 0.00 0.00 90 1022.9
20260906034018 58 143 1.0 2.0 0.00 0.00 0.00 89 1023.1
20260906033018 58 143 2.0 3.0 0.00 0.00 0.00 89 1023.3
20260906030518 58 130 0.0 2.0 0.00 0.00 0.00 89 1023.6
20260906025518 58 130 1.0 2.0 0.00 0.00 0.00 89 1023.6
20260906024518 58 131 1.0 3.0 0.00 0.00 0.00 89 1023.7
20260906023017 58 159 0.0 1.0 0.00 0.00 0.00 88 1023.7
20260906021518 58 159 0.0 1.0 0.00 0.00 0.00 88 1024.0
20260906015018 58 159 1.0 2.0 0.00 0.00 0.00 88 1024.0
20260906014018 58 159 0.0 1.0 0.00 0.00 0.00 88 1024.1
20260906013518 58 159 0.0 1.0 0.00 0.00 0.00 88 1024.0
20260906013018 59 159 0.0 1.0 0.00 0.00 0.00 88 1024.0
20260906011018 59 159 0.0 1.0 0.00 0.00 0.00 88 1024.2
20260906010018 58 159 0.0 0.0 0.00 0.00 0.00 88 1024.5
20260906005517 58 159 0.0 0.0 0.00 0.00 0.00 88 1024.5
20260906001017 58 159 0.0 1.0 0.00 0.00 0.00 88 1024.9
20260906000018 58 159 0.0 1.0 0.00 0.00 0.00 88 1025.0
20260905235518 58 159 0.0 1.0 0.00 0.00 0.00 88 1025.2
20260905232517 58 159 0.0 1.0 0.00 0.00 0.00 87 1025.4
20260905230017 58 159 0.0 3.0 0.00 0.00 0.00 86 1025.4
20260905225518 58 159 0.0 3.0 0.00 0.00 0.00 86 1025.5
20260905223018 59 159 0.0 0.0 0.00 0.00 0.00 85 1025.4
20260905222517 59 159 0.0 1.0 0.00 0.00 0.00 85 1025.3
20260905222017 59 159 0.0 1.0 0.00 0.00 0.00 85 1025.3
20260905221517 59 159 0.0 0.0 0.00 0.00 0.00 85 1025.3
20260905221017 59 159 0.0 0.0 0.00 0.00 0.00 84 1025.3
20260905220017 59 159 0.0 2.0 0.00 0.00 0.00 84 1025.4
20260905215018 59 159 0.0 0.0 0.00 0.00 0.00 83 1025.3
20260905213518 60 159 0.0 0.0 0.00 0.00 0.00 82 1025.5
20260905211517 60 159 0.0 1.0 0.00 0.00 0.00 81 1025.5
20260905210517 60 159 0.0 2.0 0.00 0.00 0.00 81 1025.4
20260905202517 61 282 0.0 0.0 0.00 0.00 0.00 77 1025.2
20260905202017 61 282 0.0 0.0 0.00 0.00 0.00 76 1025.2
20260905201017 61 282 0.0 0.0 0.00 0.00 0.00 75 1025.4
20260905200018 62 282 0.0 0.0 0.00 0.00 0.00 73 1025.4